, NM

(GMT )
Holloman AFB

Weather History for KHMN - November, 2013

Change the Weather History Date:

Wednesday, November 6, 2013

  Actual Average Record
Temperature  
Mean Temperature 46 °F -  
Max Temperature 60 °F 64 °F 78 °F (1999)
Min Temperature 33 °F 36 °F 28 °F (2002)
Degree Days  
Heating Degree Days 18    
Moisture  
Dew Point 9 °F    
Average Humidity 25    
Maximum Humidity 54    
Minimum Humidity 8    
Precipitation  
Precipitation 0.00 in - - ()
Sea Level Pressure  
Sea Level Pressure 30.25 in    
Wind  
Wind Speed 10 mph (North)    
Max Wind Speed 14 mph    
Max Gust Speed -    
Visibility 10 miles    
Events      
Averages and records for this station are not official NWS values.
T = Trace of Precipitation, MM = Missing Value Source: NWS Daily Summary

Daily Weather History Graph

Daily Weather History Graph

Search for Another Location

Airport or City:

Trip Planner

Search our weather history database for the weather conditions in past years. The results will help you decide how hot, cold, wet, or windy it might be!

Date:

Astronomy

Nov. 06, 2013 Rise Set
Actual Time 6:26 AM MST 5:08 PM MST
Civil Twilight 6:01 AM MST 5:34 PM MST
Nautical Twilight 5:31 AM MST 6:03 PM MST
Astronomical Twilight 5:02 AM MST 6:32 PM MST
Moon 9:40 AM MST (11/6) 8:20 PM MST (11/6)
Length of Visible Light 11h 33m
Length of Day
10h 41m
Waxing Crescent, 14% of the Moon is Illuminated
Nov 6
Waxing Crescent
Nov 9
First Quarter
Nov 17
Full
Nov 25
Last Quarter
Dec 2
New

Hourly Weather History & Observations

Time (MST) Temp. Windchill Dew Point Humidity Pressure Visibility Wind Dir Wind Speed Gust Speed Precip Events Conditions
12:58 AM 43.9 °F 37.5 °F 28.0 °F 54% 30.08 in 10.0 mi North 12.7 mph - N/A   Clear
1:58 AM 43.3 °F 37.2 °F 26.8 °F 52% 30.11 in 10.0 mi North 11.5 mph - N/A   Clear
2:58 AM 43.7 °F 37.7 °F 21.0 °F 41% 30.12 in 10.0 mi North 11.5 mph - N/A   Clear
3:58 AM 42.6 °F 36.3 °F 14.2 °F 32% 30.15 in 10.0 mi North 11.5 mph - N/A   Clear
4:58 AM 38.1 °F 31.7 °F 10.9 °F 33% 30.20 in 10.0 mi North 9.2 mph - N/A   Clear
5:58 AM 34.0 °F 26.6 °F 10.4 °F 38% 30.24 in 10.0 mi North 9.2 mph - N/A   Clear
6:58 AM 34.7 °F 27.5 °F 14.4 °F 43% 30.26 in 10.0 mi North 9.2 mph - N/A   Clear
7:58 AM 40.1 °F 34.1 °F 14.9 °F 36% 30.29 in 10.0 mi NNW 9.2 mph - N/A   Clear
8:58 AM 45.9 °F 39.7 °F 12.9 °F 27% 30.31 in 10.0 mi NNW 13.8 mph - N/A   Clear
9:58 AM 51.1 °F - 6.4 °F 16% 30.31 in 10.0 mi North 12.7 mph - N/A   Clear
10:58 AM 54.0 °F - 5.5 °F 14% 30.29 in 10.0 mi North 12.7 mph - N/A   Clear
11:58 AM 56.7 °F - 2.7 °F 11% 30.28 in 10.0 mi NNW 10.4 mph - N/A   Clear
12:58 PM 58.3 °F - -0.2 °F 9% 30.24 in 10.0 mi North 11.5 mph - N/A   Clear
1:58 PM 59.2 °F - 2.8 °F 10% 30.22 in 10.0 mi NW 8.1 mph - N/A   Clear
2:58 PM 60.8 °F - -0.9 °F 8% 30.21 in - North - - N/A   Clear
3:58 PM 60.3 °F - 1.8 °F 10% 30.22 in 10.0 mi WNW 6.9 mph - N/A   Clear
4:58 PM 56.8 °F - 4.8 °F 12% 30.24 in 10.0 mi West 5.8 mph - N/A   Clear
5:58 PM 51.1 °F - 3.6 °F 14% 30.28 in 10.0 mi WNW 6.9 mph - N/A   Clear
6:58 PM 46.2 °F - 4.3 °F 18% 30.31 in - North - - N/A   Clear
7:08 PM 44.6 °F 40.2 °F 5.0 °F 20% 30.34 in 10.0 mi NNE 8.1 mph - N/A   Clear
7:58 PM 43.0 °F 39.5 °F 5.5 °F 21% 30.31 in 10.0 mi NNE 5.8 mph - N/A   Clear
8:58 PM 36.9 °F 34.3 °F 7.0 °F 29% 30.33 in 10.0 mi North 3.5 mph - N/A   Clear
9:58 PM 36.3 °F 29.5 °F 7.0 °F 29% 30.33 in 10.0 mi NNE 9.2 mph - N/A   Clear
10:58 PM 33.8 °F 26.4 °F 6.8 °F 32% 30.31 in 10.0 mi NNE 9.2 mph - N/A   Clear
11:58 PM 36.0 °F 29.6 °F 5.0 °F 27% 30.30 in 10.0 mi NNE 8.1 mph - N/A   Clear